Date String (YYYY-MM-DD hh:mm:ss) UTC,Instrument flags,Ambient pressure (hPa),Sample flow (lpm),Bypass flow (lpm),Sample temperature (°C),Ambient temperature (°C),ASC tube jacket temperature (°C),LED temperature (°C),Box temperature (°C),Sample RH (%),Span deviation,Mass concentration (μg/m³),Mass concentration (μg/m³),Mass concentration (μg/m³)
DateTimeUTC,F1_M11,P_M11,Q1_M11,Q2_M11,T1_M11,T2_M11,T3_M11,T4_M11,T5_M11,U1_M11,ZSPAN_M11,X0_M11,X2_M11,X1_M11
2022-01-04 14:00:00,,0818.9,5.00,0.00,22.2,21.7,00.0,31.2,23.8,07.1,0000.0,0000.94,0000.54,0000.42
2022-01-04 14:01:00,,0818.9,5.00,0.00,22.1,21.5,00.0,31.2,23.7,07.1,0000.0,0000.91,0000.53,0000.42
2022-01-04 14:02:00,,0819.0,5.00,0.00,22.1,21.4,00.0,31.2,23.7,07.0,0000.0,0000.97,0000.55,0000.43
2022-01-04 14:03:00,,0819.0,5.00,0.00,22.1,21.3,00.0,31.2,23.6,07.1,0000.0,0001.03,0000.58,0000.44
2022-01-04 14:04:00,,0818.9,5.00,0.00,22.0,21.2,00.0,31.2,23.6,07.2,0000.0,0001.03,0000.58,0000.44
2022-01-04 14:05:00,,0818.9,5.00,0.00,22.0,21.1,00.0,31.1,23.5,07.2,0000.0,0001.20,0000.60,0000.43
2022-01-04 14:06:00,,0819.0,5.00,0.00,22.0,21.0,00.0,31.1,23.5,07.2,0000.0,0001.36,0000.65,0000.43
2022-01-04 14:07:00,,0818.9,5.00,0.00,22.0,21.1,00.0,31.1,23.5,07.5,0000.0,0001.38,0000.65,0000.43
2022-01-04 14:08:00,,0818.9,5.01,0.00,22.0,21.9,00.0,31.1,23.8,07.0,0000.0,0001.32,0000.66,0000.44
2022-01-04 14:09:00,,0818.9,5.00,0.00,22.2,22.8,00.0,31.2,24.1,07.4,0000.0,0001.35,0000.67,0000.44
2022-01-04 14:10:00,,0818.9,5.00,0.00,22.3,23.3,00.0,31.2,24.4,07.1,0000.0,0001.49,0000.71,0000.45
2022-01-04 14:11:00,,0818.9,5.00,0.00,22.4,23.1,00.0,31.2,24.3,06.8,0000.0,0001.54,0000.73,0000.45
2022-01-04 14:12:00,,0818.9,5.00,0.00,22.4,22.7,00.0,31.3,24.2,07.2,0000.0,0001.66,0000.75,0000.46
2022-01-04 14:13:00,,0818.9,5.00,0.00,22.3,22.4,00.0,31.3,24.0,07.2,0000.0,0001.61,0000.73,0000.46
2022-01-04 14:14:00,,0818.9,4.99,0.00,22.3,22.2,00.0,31.3,23.9,07.1,0000.0,0001.61,0000.72,0000.46
2022-01-04 14:15:00,,0818.8,5.02,0.00,22.2,21.9,00.0,31.3,23.9,07.0,0000.0,0001.71,0000.75,0000.46
2022-01-04 14:16:00,,0818.8,4.99,0.00,22.2,21.7,00.0,31.2,23.8,07.0,0000.0,0001.52,0000.73,0000.47
2022-01-04 14:17:00,,0818.8,5.01,0.00,22.2,21.5,00.0,31.2,23.7,07.0,0000.0,0001.36,0000.68,0000.47
2022-01-04 14:18:00,,0818.8,5.00,0.00,22.1,21.3,00.0,31.2,23.7,06.8,0000.0,0001.37,0000.68,0000.48
2022-01-04 14:19:00,,0818.9,5.00,0.00,22.1,21.2,00.0,31.2,23.6,07.0,0000.0,0001.55,0000.69,0000.47
2022-01-04 14:20:00,,0818.9,4.99,0.00,22.0,21.1,00.0,31.2,23.5,07.5,0000.0,0003.12,0000.71,0000.48
2022-01-04 14:21:00,,0818.9,5.00,0.00,22.0,21.0,00.0,31.2,23.5,07.5,0000.0,0002.99,0000.68,0000.48
2022-01-04 14:22:00,,0819.0,4.99,0.00,22.0,21.6,00.0,31.2,23.7,07.6,0000.0,0002.94,0000.67,0000.48
2022-01-04 14:23:00,,0819.0,5.01,0.00,22.1,22.4,00.0,31.2,24.0,07.2,0000.0,0002.86,0000.67,0000.48
2022-01-04 14:24:00,,0818.9,4.99,0.00,22.3,23.2,00.0,31.3,24.3,07.0,0000.0,0002.90,0000.68,0000.48
2022-01-04 14:25:00,,0819.0,5.01,0.00,22.4,23.3,00.0,31.3,24.3,06.8,0000.0,0002.85,0000.65,0000.46
2022-01-04 14:26:00,,0819.0,5.00,0.00,22.4,22.9,00.0,31.3,24.2,07.2,0000.0,0002.79,0000.65,0000.47
2022-01-04 14:27:00,,0819.0,4.99,0.00,22.4,22.6,00.0,31.3,24.1,07.3,0000.0,0002.84,0000.67,0000.46
2022-01-04 14:28:00,,0818.9,5.02,0.00,22.3,22.3,00.0,31.3,24.0,07.2,0000.0,0002.85,0000.67,0000.46
2022-01-04 14:29:00,,0819.0,4.99,0.00,22.3,22.0,00.0,31.3,23.9,07.3,0000.0,0002.88,0000.67,0000.46
2022-01-04 14:30:00,,0819.0,5.01,0.00,22.2,21.8,00.0,31.3,23.8,07.0,0000.0,0002.63,0000.65,0000.46
2022-01-04 14:31:00,,0819.0,5.00,0.00,22.2,21.6,00.0,31.3,23.7,07.2,0000.0,0001.14,0000.63,0000.46
2022-01-04 14:32:00,,0818.9,5.01,0.00,22.1,21.5,00.0,31.3,23.6,07.1,0000.0,0001.10,0000.61,0000.46
2022-01-04 14:33:00,,0818.9,4.99,0.00,22.1,21.3,00.0,31.2,23.6,07.2,0000.0,0001.19,0000.65,0000.46
2022-01-04 14:34:00,,0818.9,5.02,0.00,22.0,21.2,00.0,31.2,23.5,07.2,0000.0,0001.13,0000.64,0000.46
2022-01-04 14:35:00,,0819.0,5.00,0.00,22.0,21.1,00.0,31.2,23.4,07.0,0000.0,0001.13,0000.63,0000.46
2022-01-04 14:36:00,,0819.0,4.99,0.00,21.9,21.1,00.0,31.1,23.3,07.3,0000.0,0001.17,0000.65,0000.47
2022-01-04 14:37:00,,0819.0,5.01,0.00,21.9,21.3,00.0,31.1,23.4,07.2,0000.0,0001.19,0000.64,0000.46
2022-01-04 14:38:00,,0819.1,5.00,0.00,22.0,22.1,00.0,31.2,23.7,07.5,0000.0,0001.16,0000.63,0000.46
2022-01-04 14:39:00,,0819.1,5.00,0.00,22.2,23.0,00.0,31.2,24.1,07.3,0000.0,0001.12,0000.61,0000.45
2022-01-04 14:40:00,,0818.9,5.00,0.00,22.3,23.0,00.0,31.2,24.2,07.5,0000.0,0001.20,0000.60,0000.44
2022-01-04 14:41:00,,0818.9,4.99,0.00,22.3,22.7,00.0,31.2,24.1,07.0,0000.0,0001.20,0000.61,0000.44
2022-01-04 14:42:00,,0818.9,5.01,0.00,22.2,22.4,00.0,31.2,23.9,07.1,0000.0,0001.44,0000.59,0000.44
2022-01-04 14:43:00,,0818.9,4.99,0.00,22.2,22.1,00.0,31.2,23.9,06.9,0000.0,0002.43,0000.57,0000.43
2022-01-04 14:44:00,,0818.9,5.01,0.00,22.2,21.9,00.0,31.2,23.8,06.9,0000.0,0002.36,0000.54,0000.43
2022-01-04 14:45:00,,0819.0,5.00,0.00,22.1,21.7,00.0,31.2,23.7,07.2,0000.0,0002.35,0000.54,0000.43
2022-01-04 14:46:00,,0819.0,5.00,0.00,22.1,21.5,00.0,31.2,23.7,07.3,0000.0,0002.31,0000.53,0000.42
2022-01-04 14:47:00,,0819.0,5.01,0.00,22.0,21.4,00.0,31.2,23.6,07.2,0000.0,0002.30,0000.53,0000.42
2022-01-04 14:48:00,,0819.0,4.99,0.00,22.0,21.3,00.0,31.1,23.5,07.1,0000.0,0002.93,0000.52,0000.43
2022-01-04 14:49:00,,0819.0,5.02,0.00,21.9,21.2,00.0,31.1,23.5,07.3,0000.0,0003.43,0000.52,0000.43
2022-01-04 14:50:00,,0818.9,4.99,0.00,21.9,21.1,00.0,31.1,23.4,06.9,0000.0,0003.44,0000.52,0000.43
2022-01-04 14:51:00,,0819.0,5.00,0.00,21.9,21.0,00.0,31.1,23.3,06.9,0000.0,0003.31,0000.53,0000.43
2022-01-04 14:52:00,,0819.0,5.00,0.00,21.9,21.3,00.0,31.0,23.4,07.3,0000.0,0003.23,0000.52,0000.43
2022-01-04 14:53:00,,0819.0,5.01,0.00,22.0,22.1,00.0,31.1,23.7,07.4,0000.0,0002.87,0000.54,0000.43
2022-01-04 14:54:00,,0818.9,5.01,0.00,22.2,22.9,00.0,31.1,24.1,06.8,0000.0,0001.98,0000.56,0000.44
2022-01-04 14:55:00,,0818.9,5.00,0.00,22.3,22.9,00.0,31.1,24.1,06.9,0000.0,0003.08,0000.55,0000.45
2022-01-04 14:56:00,,0819.0,5.00,0.00,22.2,22.6,00.0,31.2,24.0,06.8,0000.0,0003.57,0000.54,0000.45
2022-01-04 14:57:00,,0818.9,4.99,0.00,22.2,22.3,00.0,31.2,23.9,06.8,0000.0,0003.64,0000.57,0000.45
2022-01-04 14:58:00,,0819.0,5.00,0.00,22.2,22.0,00.0,31.2,23.8,06.9,0000.0,0003.71,0000.58,0000.45
2022-01-04 14:59:00,,0818.8,5.01,0.00,22.2,21.8,00.0,31.2,23.8,07.1,0000.0,0003.24,0000.61,0000.45
